Content
SEND FEEDBACK

Daily
Averages
Monthly
Summary
United States of America

STATEN ISLAND, NEW YORK


Home > North America > United States > New York
Elevation: 152 feet     Latitude: 40 35N     Longitude: 074 09W

WEATHER
 
SELECT A DAY
Number of Records: 189,832;   Date Range: 1/1/95 - 9/3/14
 
SHARE

PRINT THIS DATA

[ ← Previous Day ]
WEATHER ALMANAC - JANUARY 14, 2013
[ Next Day → ]
[ °C ]   °F
Weather ElementAverageHighLow
Temperature50.8 °F57.9 °F (11:51 am)41 °F (10:51 pm)
Dewpoint44.4 °F53.1 °F (10:51 am)27 °F (8:51 pm)
Humidity81.8 %100 % (12:38 am)43 % (4:51 pm)
Barometer30.09 in30.29 in (10:51 pm)29.95 in (5:51 am)
Wind Speed6.7 mph17.3 mph (9:51 pm)
Wind Gust27.6 mph (4:51 pm)
Weather ElementAverage
Visibility5.3 mi
Wind DirectionSSW (211.3 °)

Weather ElementTotal
Precipitation0.06 in
Heating Degree Days15.6 (Base 65)
Averaged from 32 records on January 14, 2013
WEATHER CONDITIONS BREAKOUT
WIND DIRECTION BREAKOUT
WEATHER BY HOUR - JANUARY 14, 2013
[ °C ]   °F
Local TimeTemperatureDewpointHumidityBarometerVisibilityWind DirectionWind SpeedGust SpeedPrecipitationEventsConditions
12:38 AM48.2 °F48.2 °F100 %30.01 in0.5 miCalm0.00 inLight Drizzle
12:51 AM48.2 °F48.2 °F100 %30.01 in0.5 miCalmLight Drizzle
1:51 AM48.9 °F48.9 °F100 %30.00 in0.5 miCalm0.00 inLight Drizzle
2:51 AM48.9 °F48.9 °F100 %30.01 in0.5 miCalm0.00 inLight Drizzle
3:51 AM48.9 °F48.9 °F100 %30.00 in0.5 miCalm0.00 inFogLight Drizzle
4:10 AM48.2 °F48.2 °F100 %30.00 in0.5 miCalm0.00 inFogLight Drizzle
4:21 AM50.0 °F48.2 °F94 %30.00 in0.5 miCalm0.00 inFogLight Drizzle
4:51 AM48.9 °F48.9 °F100 %29.99 in0.5 miCalm0.00 inFogLight Drizzle
5:51 AM48.9 °F48.9 °F100 %29.95 in0.5 miSE (140°)3.5 mph0.00 inFogLight Drizzle
6:51 AM51.1 °F51.1 °F100 %30.01 in0.5 miVariable3.5 mph18.4 mph0.00 inLight Drizzle
7:02 AM51.8 °F51.8 °F100 %30.01 in0.5 miWNW (290°)6.9 mph0.00 inOvercast
7:36 AM51.8 °F51.8 °F100 %30.04 in2.5 miWest (280°)6.9 mph0.00 inOvercast
7:51 AM51.1 °F51.1 °F100 %30.03 in2.5 miWSW (250°)5.8 mph0.00 inOvercast
8:51 AM52.0 °F51.1 °F97 %30.06 in2.5 miWest (260°)4.6 mphOvercast
9:04 AM51.8 °F51.8 °F100 %30.06 in3.0 miWSW (240°)5.8 mphOvercast
9:34 AM53.6 °F51.8 °F94 %30.06 in3.0 miSW (230°)4.6 mphMostly Cloudy
9:38 AM53.6 °F51.8 °F94 %30.06 in6.0 miSW (230°)5.8 mphMostly Cloudy
9:51 AM53.1 °F52.0 °F96 %30.07 in6.0 miWSW (250°)3.5 mphMostly Cloudy
10:51 AM55.9 °F53.1 °F90 %30.08 in8.0 miWest (270°)5.8 mphMostly Cloudy
11:51 AM57.9 °F50.0 °F75 %30.08 in9.0 miNW (320°)11.5 mphMostly Cloudy
12:51 PM55.9 °F45.0 °F67 %30.07 in10.0 miNNW (340°)11.5 mphMostly Cloudy
1:51 PM57.0 °F44.1 °F62 %30.09 in10.0 miNW (320°)10.4 mph17.3 mphMostly Cloudy
2:51 PM55.9 °F37.9 °F51 %30.12 in10.0 miNNW (340°)12.7 mph20.7 mphMostly Cloudy
3:51 PM55.0 °F39.0 °F55 %30.15 in10.0 miNorth (350°)13.8 mphMostly Cloudy
4:51 PM53.1 °F30.9 °F43 %30.15 in10.0 miNW (320°)15.0 mph27.6 mphMostly Cloudy
5:51 PM51.1 °F30.9 °F46 %30.18 in10.0 miNNW (330°)10.4 mphMostly Cloudy
6:51 PM51.1 °F30.0 °F44 %30.19 in10.0 miNNW (330°)11.5 mph18.4 mphOvercast
7:51 PM48.9 °F28.0 °F44 %30.26 in10.0 miNW (320°)11.5 mphOvercast
8:51 PM48.0 °F27.0 °F44 %30.26 in10.0 miNNW (330°)12.7 mphOvercast
9:51 PM44.1 °F30.9 °F60 %30.27 in10.0 miNNW (330°)17.3 mph0.00 inRainLight Rain
10:51 PM41.0 °F35.1 °F79 %30.29 in10.0 miNNW (340°)11.5 mph0.04 inRainLight Rain
11:51 PM41.0 °F36.0 °F82 %30.29 in10.0 miNorth (350°)8.1 mph0.02 inRainLight Rain
Hourly data recorded from KEWR, located miles away from Staten Island, New York







STORIES FROM OUR PARTNERS